When you browse on this site, cookies collect data to enhance your experience and personalize the content and advertising you see.
Visit our Privacy Policy to learn more. By continuing to use the site, you agree to this use of cookies and data.

Meteo pe oră la La Paz

Astăzi, 4 Iulie, Sâmbătă

Timp Temperatura Precipitaţii Vânt Presiune Umiditate
00:00 +3°C° 0 mm 1 m/s 469 mmHg 43%
01:00 +3°C° 0 mm 1 m/s 469 mmHg 40%
02:00 +3°C° 0 mm 1 m/s 469 mmHg 38%
03:00 +2°C° 0 mm 1 m/s 468 mmHg 36%
04:00 +2°C° 0 mm 1 m/s 468 mmHg 34%
05:00 +2°C° 0 mm 2 m/s 469 mmHg 31%
06:00 +4°C° 0 mm 2 m/s 471 mmHg 28%
07:00 +5°C° 0 mm 2 m/s 472 mmHg 24%
08:00 +7°C° 0 mm 2 m/s 474 mmHg 21%
09:00 +10°C° 0 mm 2 m/s 475 mmHg 18%
10:00 +12°C° 0 mm 3 m/s 477 mmHg 15%
11:00 +13°C° 0 mm 3 m/s 477 mmHg 16%
12:00 +14°C° 0 mm 3 m/s 477 mmHg 16%
13:00 +16°C° 0 mm 3 m/s 476 mmHg 17%
14:00 +14°C° 0 mm 3 m/s 476 mmHg 19%
15:00 +13°C° 0 mm 3 m/s 475 mmHg 22%
16:00 +13°C° 0 mm 3 m/s 475 mmHg 25%
17:00 +10°C° 0 mm 2 m/s 473 mmHg 28%
18:00 +8°C° 0 mm 2 m/s 472 mmHg 31%
19:00 +6°C° 0 mm 1 m/s 471 mmHg 35%
20:00 +6°C° 0 mm 1 m/s 471 mmHg 32%
21:00 +5°C° 0 mm 1 m/s 471 mmHg 30%
22:00 +5°C° 0 mm 1 m/s 471 mmHg 28%
23:00 +4°C° 0 mm 1 m/s 470 mmHg 25%

Mâine, 5 Iulie, Duminică

Timp Temperatura Precipitaţii Vânt Presiune Umiditate
00:00 +4°C° 0 mm 1 m/s 470 mmHg 22%
01:00 +3°C° 0 mm 1 m/s 469 mmHg 20%
02:00 +3°C° 0 mm 1 m/s 469 mmHg 20%
03:00 +2°C° 0 mm 1 m/s 469 mmHg 20%
04:00 +2°C° 0 mm 1 m/s 468 mmHg 20%
05:00 +2°C° 0 mm 0 m/s 470 mmHg 23%
06:00 +3°C° 0 mm 0 m/s 471 mmHg 26%
07:00 +5°C° 0 mm 0 m/s 472 mmHg 30%
08:00 +7°C° 0 mm 0 m/s 474 mmHg 26%
09:00 +10°C° 0 mm 1 m/s 475 mmHg 22%
10:00 +12°C° 0 mm 1 m/s 477 mmHg 18%
11:00 +13°C° 0 mm 1 m/s 477 mmHg 21%
12:00 +14°C° 0 mm 2 m/s 476 mmHg 24%
13:00 +14°C° 0 mm 2 m/s 476 mmHg 27%
14:00 +14°C° 0 mm 2 m/s 475 mmHg 32%
15:00 +13°C° 0 mm 2 m/s 475 mmHg 36%
16:00 +13°C° 0 mm 2 m/s 474 mmHg 41%
17:00 +10°C° 0 mm 2 m/s 473 mmHg 53%
18:00 +8°C° 0 mm 2 m/s 472 mmHg 65%
19:00 +7°C° 0 mm 1 m/s 472 mmHg 76%
20:00 +5°C° 0 mm 2 m/s 472 mmHg 78%
21:00 +5°C° 0 mm 2 m/s 472 mmHg 79%
22:00 +4°C° 0 mm 2 m/s 472 mmHg 81%
23:00 +4°C° 0 mm 2 m/s 471 mmHg 83%

Poimâine, 6 Iulie, Luni

Timp Temperatura Precipitaţii Vânt Presiune Umiditate
00:00 +4°C° 0 mm 1 m/s 471 mmHg 86%
01:00 +4°C° 0 mm 1 m/s 470 mmHg 88%
02:00 +2°C° 0 mm 0 m/s 470 mmHg 89%
03:00 +2°C° 0 mm 0 m/s 469 mmHg 89%
04:00 +1°C° 0 mm 0 m/s 469 mmHg 90%
05:00 +2°C° 0 mm 0 m/s 470 mmHg 86%
06:00 +4°C° 0 mm 1 m/s 471 mmHg 83%
07:00 +5°C° 0 mm 1 m/s 472 mmHg 79%
08:00 +7°C° 0 mm 1 m/s 473 mmHg 71%
09:00 +9°C° 0 mm 1 m/s 474 mmHg 62%
10:00 +10°C° 0 mm 1 m/s 475 mmHg 54%
11:00 +10°C° 0 mm 2 m/s 475 mmHg 52%
12:00 +11°C° 0 mm 3 m/s 475 mmHg 49%
13:00 +12°C° 0 mm 4 m/s 475 mmHg 47%
14:00 +12°C° 0.1 mm 4 m/s 475 mmHg 48%
15:00 +11°C° 0.1 mm 4 m/s 474 mmHg 48%
16:00 +11°C° 0.1 mm 4 m/s 474 mmHg 49%
17:00 +8°C° 0.1 mm 4 m/s 473 mmHg 60%
18:00 +8°C° 0.1 mm 3 m/s 472 mmHg 72%
19:00 +5°C° 0.1 mm 3 m/s 472 mmHg 83%
20:00 +6°C° 0 mm 2 m/s 472 mmHg 85%
21:00 +6°C° 0 mm 1 m/s 472 mmHg 86%
22:00 +5°C° 0 mm 0 m/s 472 mmHg 88%
23:00 +4°C° 0 mm 0 m/s 472 mmHg 88%

7 Iulie, Marţi

Timp Temperatura Precipitaţii Vânt Presiune Umiditate
00:00 +4°C° 0 mm 0 m/s 471 mmHg 89%
01:00 +3°C° 0 mm 0 m/s 470 mmHg 89%
02:00 +4°C° 0 mm 1 m/s 470 mmHg 88%
03:00 +4°C° 0 mm 1 m/s 470 mmHg 86%
04:00 +4°C° 0 mm 1 m/s 470 mmHg 84%
05:00 +4°C° 0 mm 1 m/s 471 mmHg 79%
06:00 +5°C° 0 mm 1 m/s 472 mmHg 74%
07:00 +5°C° 0 mm 2 m/s 473 mmHg 68%
08:00 +7°C° 0 mm 3 m/s 474 mmHg 59%
09:00 +8°C° 0 mm 4 m/s 475 mmHg 50%
10:00 +10°C° 0 mm 5 m/s 476 mmHg 41%
11:00 +11°C° 0 mm 6 m/s 476 mmHg 35%
12:00 +11°C° 0 mm 6 m/s 476 mmHg 29%
13:00 +12°C° 0 mm 7 m/s 476 mmHg 24%
14:00 +13°C° 0 mm 6 m/s 475 mmHg 24%
15:00 +11°C° 0 mm 6 m/s 475 mmHg 23%
16:00 +12°C° 0 mm 5 m/s 474 mmHg 23%
17:00 +10°C° 0 mm 4 m/s 474 mmHg 25%
18:00 +6°C° 0 mm 4 m/s 473 mmHg 27%
19:00 +4°C° 0 mm 3 m/s 472 mmHg 29%
20:00 +3°C° 0 mm 3 m/s 471 mmHg 27%
21:00 +3°C° 0 mm 2 m/s 471 mmHg 26%
22:00 +2°C° 0 mm 2 m/s 471 mmHg 24%
23:00 +2°C° 0 mm 2 m/s 470 mmHg 24%

8 Iulie, Miercuri

Timp Temperatura Precipitaţii Vânt Presiune Umiditate
00:00 +2°C° 0 mm 1 m/s 470 mmHg 24%
01:00 +2°C° 0 mm 1 m/s 469 mmHg 24%
02:00 +1°C° 0 mm 1 m/s 469 mmHg 24%
03:00 +1°C° 0 mm 1 m/s 469 mmHg 23%
04:00 +1°C° 0 mm 1 m/s 468 mmHg 23%
05:00 +2°C° 0 mm 1 m/s 470 mmHg 24%
06:00 +3°C° 0 mm 1 m/s 471 mmHg 24%
07:00 +4°C° 0 mm 1 m/s 472 mmHg 24%
08:00 +6°C° 0 mm 1 m/s 473 mmHg 22%
09:00 +7°C° 0 mm 2 m/s 474 mmHg 21%
10:00 +9°C° 0 mm 2 m/s 476 mmHg 19%
11:00 +10°C° 0 mm 2 m/s 476 mmHg 20%
12:00 +11°C° 0 mm 3 m/s 476 mmHg 21%
13:00 +12°C° 0 mm 4 m/s 476 mmHg 22%
14:00 +11°C° 0 mm 3 m/s 475 mmHg 23%
15:00 +11°C° 0 mm 3 m/s 475 mmHg 24%
16:00 +10°C° 0 mm 3 m/s 474 mmHg 24%
17:00 +8°C° 0 mm 2 m/s 473 mmHg 35%
18:00 +6°C° 0 mm 2 m/s 472 mmHg 46%
19:00 +5°C° 0 mm 1 m/s 471 mmHg 57%
20:00 +4°C° 0 mm 1 m/s 471 mmHg 58%
21:00 +3°C° 0 mm 1 m/s 471 mmHg 59%
22:00 +3°C° 0 mm 1 m/s 471 mmHg 61%
23:00 +2°C° 0 mm 1 m/s 470 mmHg 64%

9 Iulie, Joi

Timp Temperatura Precipitaţii Vânt Presiune Umiditate
00:00 +2°C° 0 mm 1 m/s 470 mmHg 68%
01:00 +1°C° 0 mm 1 m/s 470 mmHg 72%
02:00 +1°C° 0 mm 1 m/s 469 mmHg 69%
03:00 +1°C° 0 mm 1 m/s 469 mmHg 67%
04:00 0°C° 0 mm 1 m/s 468 mmHg 65%
05:00 +1°C° 0 mm 1 m/s 470 mmHg 57%
06:00 +2°C° 0 mm 0 m/s 471 mmHg 49%
07:00 +3°C° 0 mm 0 m/s 472 mmHg 42%
08:00 +6°C° 0 mm 1 m/s 474 mmHg 35%
09:00 +8°C° 0 mm 1 m/s 475 mmHg 28%
10:00 +10°C° 0 mm 1 m/s 476 mmHg 21%
11:00 +9°C° 0 mm 2 m/s 476 mmHg 22%
12:00 +10°C° 0 mm 2 m/s 476 mmHg 23%
13:00 +12°C° 0 mm 2 m/s 476 mmHg 23%
14:00 +10°C° 0 mm 2 m/s 475 mmHg 26%
15:00 +10°C° 0 mm 2 m/s 475 mmHg 28%
16:00 +10°C° 0 mm 2 m/s 474 mmHg 31%
17:00 +9°C° 0 mm 1 m/s 474 mmHg 41%
18:00 +8°C° 0 mm 1 m/s 473 mmHg 51%
19:00 +6°C° 0 mm 1 m/s 472 mmHg 61%
20:00 +5°C° 0 mm 1 m/s 472 mmHg 63%
21:00 +5°C° 0 mm 1 m/s 472 mmHg 66%
22:00 +4°C° 0 mm 1 m/s 471 mmHg 68%
23:00 +4°C° 0 mm 1 m/s 471 mmHg 63%
Arată mai mult